RORVIK/RYUM current weather conditions

sailwx.info

Wind from 100 at 8 knots

Air temperature -1.0° C
Visibility: greater than 5.4 NM
Dewpoint -2.0° C

Last reported at 2016-Dec-03 08:50 UTC.
Time now 2016-Dec-03 15:38 UTC

Location: N 64°50' E 011°08'.
View on Google Maps.

See reports from other nearby stations

  
Tides and Currents Weather Stations Pressure Air Temp Water Temp Dewpoint Dewpoint Depression Visibility Wind Speed Wind Dir Waves Ship Positions
date/time (UTC)wind fromknots sea level pressurealtimeterstation pressurevisibilityair tempwater tempwave heightnotes
2016-Dec-03 08:50 100 8 5.4-1.0
2016-Dec-03 08:20 110 9 5.4-1.0
2016-Dec-03 07:50 100 6 5.4-1.0
2016-Dec-03 07:20 110 5 5.4-1.0
2016-Dec-03 06:20 080 6 5.4-1.0
2016-Dec-03 05:50 080 4 5.4-0.0
2016-Dec-02 21:20 350 5 5.4 1.0 Showers in the vicinity.
2016-Dec-02 20:20 270 6 5.4 1.0 Showers in the vicinity.
2016-Dec-02 19:50 270 9 5.4 2.0 Light snow showers.
2016-Dec-02 16:50 270 9 5.4 1.0 Light snow showers.
2016-Dec-02 15:50 5.4-1.0 Showers in the vicinity.
2016-Dec-02 14:50 310 5 3.2 1.0 Light snow showers.
2016-Dec-02 13:50 310 6 5.4 2.0 Showers in the vicinity.
2016-Dec-02 09:50 340 6 5.4 3.0
2016-Dec-02 09:20 280 4 5.4 1.0
2016-Dec-02 06:20 330 6 5.4 4.0
2016-Dec-02 05:50 350 8 5.4 4.0
2016-Dec-02 05:20 350 9 5.4 4.0
2016-Dec-02 04:50 340 7 5.4 4.0
2016-Dec-01 21:20 350 14 gusting 27 5.4 5.0 Showers in the vicinity.
2016-Dec-01 20:50 340 15 gusting 26 5.4 5.0 Showers in the vicinity.
2016-Dec-01 19:50 350 15 5.4 5.0 Showers in the vicinity.
2016-Dec-01 16:50 290 7 5.4 4.0 Showers in the vicinity.
2016-Dec-01 16:20 320 13 gusting 27 5.4 3.0 Showers in the vicinity.
2016-Dec-01 15:50 300 6 5.4 4.0
2016-Dec-01 15:20 310 8 5.4 4.0 Showers in the vicinity.